This is the latest recevied weather packets stored in our database for station/object VK4AB-13. If no packets are shown the sender has not sent any weather packets the latest 10 day(s).
| Time | Temp. | Humidity | Pressure | Rain* | Wind** | Luminosity | Snow |
|---|---|---|---|---|---|---|---|
| 1777614835 | 26.11° C | 55% | 1020.5 hPa | 0 mm | - | 323 W/m² | - |
| 1777614535 | 26.11° C | 56% | 1020.6 hPa | 0 mm | - | 362 W/m² | - |
| 1777614235 | 26.11° C | 55% | 1020.6 hPa | 0 mm | - | 297 W/m² | - |
| 1777613935 | 26.11° C | 55% | 1020.7 hPa | 0 mm | - | 88 W/m² | - |
| 1777613635 | 26.11° C | 54% | 1020.7 hPa | 0 mm | - | 353 W/m² | - |
| 1777613335 | 26.11° C | 55% | 1020.7 hPa | 0 mm | - | 113 W/m² | - |
| 1777613035 | 26.11° C | 55% | 1020.7 hPa | 0 mm | - | 454 W/m² | - |
| 1777612735 | 26.11° C | 55% | 1020.8 hPa | 0 mm | - | 432 W/m² | - |
| 1777612435 | 26.11° C | 55% | 1020.8 hPa | 0 mm | - | 397 W/m² | - |
| 1777612135 | 25.56° C | 55% | 1020.9 hPa | 0 mm | - | 411 W/m² | - |
| 1777611835 | 25.56° C | 55% | 1020.8 hPa | 0 mm | - | 450 W/m² | - |
| 1777611535 | 25.56° C | 56% | 1020.8 hPa | 0 mm | - | 415 W/m² | - |
| 1777611235 | 25° C | 57% | 1020.9 hPa | 0 mm | - | 482 W/m² | - |
| 1777610935 | 25.56° C | 56% | 1020.9 hPa | 0 mm | - | 109 W/m² | - |
| 1777610635 | 25.56° C | 56% | 1020.9 hPa | 0 mm | - | 88 W/m² | - |
| 1777610335 | 25.56° C | 55% | 1021 hPa | 0 mm | - | 84 W/m² | - |
| 1777610035 | 26.11° C | 55% | 1020.8 hPa | 0 mm | - | 128 W/m² | - |
| 1777609735 | 25.56° C | 55% | 1020.8 hPa | 0 mm | - | 265 W/m² | - |
| 1777609435 | 25.56° C | 55% | 1020.8 hPa | 0 mm | - | 195 W/m² | - |
| 1777609135 | 25.56° C | 56% | 1020.9 hPa | 0 mm | - | 209 W/m² | - |
| 1777608835 | 25.56° C | 56% | 1020.8 hPa | 0 mm | - | 190 W/m² | - |
| 1777608535 | 25.56° C | 56% | 1020.9 hPa | 0 mm | - | 211 W/m² | - |
| 1777608235 | 25.56° C | 55% | 1021 hPa | 0 mm | - | 190 W/m² | - |
| 1777607935 | 26.11° C | 54% | 1021 hPa | 0 mm | - | 199 W/m² | - |
| 1777607635 | 25.56° C | 55% | 1021.2 hPa | 0 mm | - | 262 W/m² | - |
* Rain latest hour (hover to see other rain measurements)
** Current wind speed in m/s (hover to see current wind gust speed)